Terug naar catalogus

FENGYUN 1C DEB

ActiefSSO
NORAD 32132·DEBRIS·🇨🇳 China

Gelanceerd May 10, 1999 vanaf Taiyuan Satellite Launch Center

Loading…

Volgende Passages (komende 24 uur)

TLE

VersSource: Space-Track

Epoch: Sep 14, 2026, 09:17 UTC

1 32132U 99025CSA 26257.38731724  .00003679  00000-0  85267-3 0  9999
2 32132  98.3567 316.3555 0077240 138.4754 222.2346 14.53837073748002

Volg FENGYUN 1C DEB in realtime met AllMySat

Download on the App Store